This is the latest recevied weather packets stored in our database for station/object DL9GRB-13. If no packets are shown the sender has not sent any weather packets the latest 1 day(s).
| Time | Temp. | Humidity | Pressure | Rain* | Wind** | Luminosity | Snow |
|---|---|---|---|---|---|---|---|
| 1777994708 | 15° C | 67% | 1009.2 hPa | 0 mm | 0 m/s | 327 W/m² | - |
| 1777994528 | 15° C | 67% | 1009.1 hPa | 0 mm | 4.02 m/s, 136° | 372 W/m² | - |
| 1777994348 | 15° C | 66% | 1009.2 hPa | 0 mm | 6.71 m/s, 94° | 367 W/m² | - |
| 1777994168 | 15° C | 64% | 1009.2 hPa | 0 mm | 2.24 m/s, 42° | 385 W/m² | - |
| 1777993988 | 15° C | 63% | 1009.2 hPa | 0 mm | 8.94 m/s, 104° | 411 W/m² | - |
| 1777993808 | 14.44° C | 65% | 1009.3 hPa | 0 mm | 5.36 m/s, 104° | 396 W/m² | - |
| 1777993628 | 13.89° C | 69% | 1009.2 hPa | 0 mm | 1.79 m/s, 127° | 400 W/m² | - |
| 1777993448 | 13.89° C | 68% | 1009.3 hPa | 0 mm | 5.81 m/s, 60° | 388 W/m² | - |
| 1777993268 | 13.89° C | 65% | 1009.4 hPa | 0 mm | 10.28 m/s, 64° | 418 W/m² | - |
| 1777993088 | 14.44° C | 64% | 1009.4 hPa | 0 mm | 8.05 m/s, 96° | 460 W/m² | - |
| 1777992908 | 14.44° C | 67% | 1009.3 hPa | 0 mm | 4.92 m/s, 37° | 487 W/m² | - |
| 1777992728 | 13.89° C | 66% | 1009.2 hPa | 0 mm | 4.92 m/s, 285° | 484 W/m² | - |
| 1777992548 | 13.89° C | 67% | 1009.5 hPa | 0 mm | 3.13 m/s, 77° | 488 W/m² | - |
| 1777992368 | 13.89° C | 66% | 1009.6 hPa | 0 mm | 4.92 m/s, 81° | 194 W/m² | - |
| 1777992188 | 13.89° C | 65% | 1009.5 hPa | 0 mm | 12.07 m/s, 75° | 311 W/m² | - |
| 1777992008 | 13.89° C | 66% | 1009.5 hPa | 0 mm | 3.58 m/s, 60° | 564 W/m² | - |
| 1777991828 | 13.33° C | 69% | 1009.7 hPa | 0 mm | 0 m/s | 404 W/m² | - |
| 1777991648 | 13.33° C | 68% | 1009.5 hPa | 0 mm | 6.26 m/s, 58° | 345 W/m² | - |
| 1777991468 | 13.33° C | 67% | 1009.7 hPa | 0 mm | 4.47 m/s, 68° | 230 W/m² | - |
| 1777991288 | 13.33° C | 66% | 1009.7 hPa | 0 mm | 5.36 m/s, 94° | 242 W/m² | - |
| 1777991108 | 13.33° C | 65% | 1009.7 hPa | 0 mm | 6.26 m/s, 340° | 236 W/m² | - |
| 1777990928 | 13.33° C | 64% | 1009.7 hPa | 0 mm | 6.26 m/s, 73° | 224 W/m² | - |
| 1777990748 | 13.33° C | 65% | 1009.6 hPa | 0 mm | 2.68 m/s, 63° | 236 W/m² | - |
| 1777990568 | 13.33° C | 66% | 1009.7 hPa | 0 mm | 4.47 m/s, 10° | 226 W/m² | - |
| 1777990388 | 13.33° C | 68% | 1009.7 hPa | 0 mm | 7.15 m/s, 91° | 225 W/m² | - |
* Rain latest hour (hover to see other rain measurements)
** Current wind speed in m/s (hover to see current wind gust speed)